Perry, FL

7:35 PM EDT on June 26, 2017 (GMT -0400)
Perry

Weather History for K40J - January, 2014

Change the Weather History Date:

Tuesday, January 28, 2014

  Actual Average (KVLD) Record (KVLD)
Temperature  
Mean Temperature 51 °F -  
Max Temperature 61 °F 61 °F 60 °F (2014)
Min Temperature 41 °F 39 °F 31 °F (2015)
Degree Days  
Heating Degree Days 14    
Growing Degree Days 1 (Base 50)    
Moisture  
Dew Point 51 °F    
Average Humidity 95    
Maximum Humidity 100    
Minimum Humidity 83    
Precipitation  
Precipitation 0.52 in - - ()
Sea Level Pressure  
Sea Level Pressure 30.04 in    
Wind  
Wind Speed 4 mph (NNE)    
Max Wind Speed 15 mph    
Max Gust Speed -    
Visibility 5 miles    
Events Fog , Rain    
Averages and records for this station are not official NWS values.
T = Trace of Precipitation, MM = Missing Value Source: NWS Daily Summary

Daily Weather History Graph

Daily Weather History Graph

Search for Another Location

Airport or City:

Trip Planner

Search our weather history database for the weather conditions in past years. The results will help you decide how hot, cold, wet, or windy it might be!

Date:

Astronomy

Jan. 28, 2014 Rise Set
Actual Time 7:26 AM EST 6:08 PM EST
Civil Twilight 7:01 AM EST 6:33 PM EST
Nautical Twilight 6:32 AM EST 7:02 PM EST
Astronomical Twilight 6:04 AM EST 7:30 PM EST
Moon 5:04 AM EST (1/28) 3:59 PM EST (1/28)
Length of Visible Light 11h 31m
Length of Day
10h 41m
Waning Crescent, 7% of the Moon is Illuminated
Jan 28
Waning Crescent
Jan 30
New
Feb 6
First Quarter
Feb 14
Full
Feb 22
Last Quarter

Hourly Weather History & Observations

Time (EST) Temp. Windchill Dew Point Humidity Pressure Visibility Wind Dir Wind Speed Gust Speed Precip Events Conditions
12:15 AM 57.2 °F - 57.2 °F 100% 30.01 in 5.0 mi Calm Calm - 0.01 in   Drizzle
12:35 AM 59.0 °F - 57.2 °F 94% 30.00 in 4.0 mi Calm Calm - 0.03 in Rain Heavy Rain
12:53 AM 59.0 °F - 55.9 °F 90% 29.99 in - Calm Calm - 0.06 in   Unknown
12:55 AM 59.0 °F - 57.2 °F 94% 30.00 in 4.0 mi Calm Calm - 0.04 in   Drizzle
1:15 AM 59.0 °F - 57.2 °F 94% 30.00 in 5.0 mi Calm Calm - 0.01 in   Drizzle
1:35 AM 59.0 °F - 59.0 °F 100% 30.00 in 4.0 mi SSW 3.5 mph - 0.02 in Rain Heavy Rain
1:53 AM 61.0 °F - 57.9 °F 90% 29.97 in - South 4.6 mph - 0.03 in   Unknown
1:55 AM 59.0 °F - 59.0 °F 100% 29.98 in 7.0 mi South 4.6 mph - 0.03 in Rain Light Rain
2:15 AM 59.0 °F - 59.0 °F 100% 29.99 in 10.0 mi SSW 4.6 mph - N/A   Overcast
2:35 AM 59.0 °F - 59.0 °F 100% 29.98 in 5.0 mi Calm Calm - 0.01 in   Drizzle
2:53 AM 60.1 °F - 57.9 °F 93% 29.97 in - Calm Calm - 0.01 in   Unknown
2:55 AM 59.0 °F - 59.0 °F 100% 29.98 in 7.0 mi Calm Calm - 0.01 in   Overcast
3:15 AM 59.0 °F - 59.0 °F 100% 29.98 in 7.0 mi Calm Calm - N/A   Overcast
3:35 AM 59.0 °F - 59.0 °F 100% 29.98 in 5.0 mi Calm Calm - N/A   Overcast
3:53 AM 60.1 °F - 57.9 °F 93% 29.97 in - Calm Calm - N/A   Unknown
3:55 AM 59.0 °F - 59.0 °F 100% 29.97 in 3.0 mi Calm Calm - N/A   Light Drizzle
4:15 AM 59.0 °F - 59.0 °F 100% 29.98 in 2.5 mi North 5.8 mph - 0.01 in   Overcast
4:35 AM 59.0 °F - 57.2 °F 94% 29.98 in 3.0 mi North 4.6 mph - 0.01 in   Overcast
4:53 AM 59.0 °F - 55.9 °F 90% 29.97 in - Calm Calm - 0.01 in   Unknown
4:55 AM 57.2 °F - 57.2 °F 100% 29.98 in 1.8 mi Calm Calm - 0.01 in   Overcast
5:15 AM 57.2 °F - 57.2 °F 100% 29.99 in 1.0 mi Calm Calm - N/A   Overcast
5:35 AM 57.2 °F - 57.2 °F 100% 29.99 in 0.5 mi Calm Calm - N/A Fog Fog
5:53 AM 59.0 °F - 57.0 °F 93% 29.99 in - Calm Calm - N/A   Unknown
5:55 AM 57.2 °F - 57.2 °F 100% 30.00 in 1.8 mi Calm Calm - N/A   Overcast
6:15 AM 59.0 °F - 57.2 °F 94% 30.00 in 1.2 mi Calm Calm - N/A   Overcast
6:35 AM 57.2 °F - 57.2 °F 100% 30.00 in 2.0 mi North 4.6 mph - N/A   Overcast
6:53 AM 59.0 °F - 55.9 °F 90% 30.01 in - NNE 4.6 mph - N/A   Unknown
6:55 AM 57.2 °F - 57.2 °F 100% 30.02 in 1.8 mi North 3.5 mph - N/A   Overcast
7:15 AM 57.2 °F - 57.2 °F 100% 30.03 in 2.5 mi NE 4.6 mph - N/A   Overcast
7:35 AM 57.2 °F - 57.2 °F 100% 30.03 in 2.5 mi North 4.6 mph - N/A   Overcast
7:53 AM 57.9 °F - 55.9 °F 93% 30.02 in - NNE 8.1 mph - N/A   Unknown
7:55 AM 57.2 °F - 57.2 °F 100% 30.03 in 5.0 mi North 8.1 mph - N/A   Overcast
8:15 AM 55.4 °F - 55.4 °F 100% 30.04 in 4.0 mi NNE 10.4 mph - N/A   Overcast
8:35 AM 55.4 °F - 55.4 °F 100% 30.05 in 5.0 mi NNE 6.9 mph - N/A   Overcast
8:53 AM 57.0 °F - 54.0 °F 89% 30.04 in - NNE 5.8 mph - N/A   Unknown
8:55 AM 55.4 °F - 55.4 °F 100% 30.05 in 4.0 mi NE 4.6 mph - N/A   Overcast
9:15 AM 55.4 °F - 55.4 °F 100% 30.06 in 4.0 mi NE 5.8 mph - N/A   Overcast
9:35 AM 55.4 °F - 55.4 °F 100% 30.06 in 3.0 mi NE 5.8 mph - N/A   Overcast
9:53 AM 57.0 °F - 54.0 °F 89% 30.07 in - NNE 5.8 mph - N/A   Unknown
9:55 AM 55.4 °F - 55.4 °F 100% 30.08 in 4.0 mi NNE 6.9 mph - N/A   Overcast
10:15 AM 53.6 °F - 53.6 °F 100% 30.09 in 2.5 mi North 9.2 mph - N/A   Overcast
10:35 AM 53.6 °F - 51.8 °F 94% 30.09 in 2.0 mi NNE 6.9 mph - N/A   Overcast
10:53 AM 52.0 °F - 50.0 °F 93% 30.08 in - North 5.8 mph - N/A   Unknown
10:55 AM 51.8 °F - 51.8 °F 100% 30.09 in 1.8 mi NNE 5.8 mph - N/A   Overcast
11:15 AM 51.8 °F - 51.8 °F 100% 30.09 in 2.0 mi NNE 5.8 mph - N/A   Overcast
11:35 AM 51.8 °F - 50.0 °F 94% 30.09 in 3.0 mi NNE 6.9 mph - N/A   Overcast
11:53 AM 52.0 °F - 48.9 °F 89% 30.07 in - NNE 8.1 mph - N/A   Unknown
11:55 AM 51.8 °F - 50.0 °F 94% 30.09 in 2.5 mi North 6.9 mph - N/A   Overcast
12:15 PM 51.8 °F - 50.0 °F 94% 30.09 in 2.0 mi North 6.9 mph - N/A   Overcast
12:35 PM 51.8 °F - 50.0 °F 94% 30.09 in 2.5 mi NNE 3.5 mph - N/A   Overcast
12:53 PM 52.0 °F - 48.9 °F 89% 30.06 in - North 6.9 mph - N/A   Unknown
12:55 PM 51.8 °F - 50.0 °F 94% 30.08 in 4.0 mi North 5.8 mph - N/A   Overcast
1:15 PM 51.8 °F - 50.0 °F 94% 30.07 in 4.0 mi North 8.1 mph - N/A   Overcast
1:35 PM 51.8 °F - 50.0 °F 94% 30.05 in 4.0 mi North 9.2 mph - N/A   Overcast
1:53 PM 52.0 °F - 48.0 °F 86% 30.04 in - North 8.1 mph - N/A   Unknown
1:55 PM 50.0 °F - 50.0 °F 100% 30.05 in 7.0 mi NNE 3.5 mph - N/A   Overcast
2:15 PM 50.0 °F - 48.2 °F 94% 30.04 in 10.0 mi NNE 5.8 mph - N/A   Overcast
2:35 PM 50.0 °F - 48.2 °F 94% 30.04 in 5.0 mi North 6.9 mph - N/A Rain Rain
2:53 PM 50.0 °F - 46.0 °F 86% 30.01 in - NNE 8.1 mph - 0.02 in   Unknown
2:55 PM 50.0 °F - 48.2 °F 94% 30.03 in 7.0 mi NNE 6.9 mph - 0.02 in Rain Light Rain
3:15 PM 50.0 °F - 48.2 °F 94% 30.02 in 10.0 mi NNE 3.5 mph - N/A   Overcast
3:35 PM 50.0 °F - 48.2 °F 94% 30.02 in 10.0 mi NNE 5.8 mph - N/A   Overcast
3:53 PM 51.1 °F - 46.9 °F 86% 30.01 in - North 6.9 mph - N/A   Unknown
3:55 PM 50.0 °F - 50.0 °F 100% 30.01 in 10.0 mi NNE 5.8 mph - N/A   Overcast
4:15 PM 50.0 °F - 48.2 °F 94% 30.01 in 10.0 mi ENE 5.8 mph - N/A   Overcast
4:35 PM 50.0 °F - 48.2 °F 94% 30.02 in 10.0 mi NNE 4.6 mph - N/A   Overcast
4:53 PM 50.0 °F - 45.0 °F 83% 30.01 in - NNE 8.1 mph - N/A   Unknown
4:55 PM 50.0 °F - 46.4 °F 87% 30.00 in 10.0 mi NNE 6.9 mph - N/A   Overcast
5:15 PM 50.0 °F - 46.4 °F 87% 30.02 in 10.0 mi NE 6.9 mph - N/A   Overcast
5:35 PM 50.0 °F - 46.4 °F 87% 30.03 in 7.0 mi NNE 4.6 mph - N/A   Overcast
5:53 PM 48.9 °F - 45.0 °F 86% 30.02 in - NNE 8.1 mph - N/A   Unknown
5:55 PM 48.2 °F - 46.4 °F 93% 30.02 in 7.0 mi NE 8.1 mph - N/A   Overcast
6:15 PM 48.2 °F - 46.4 °F 93% 30.04 in 7.0 mi North 5.8 mph - N/A   Overcast
6:35 PM 46.4 °F 44.3 °F 46.4 °F 100% 30.03 in 4.0 mi NNE 4.6 mph - N/A Rain Light Rain
6:53 PM 48.0 °F - 45.0 °F 89% 30.04 in - North 6.9 mph - N/A   Unknown
6:55 PM 46.4 °F 42.9 °F 46.4 °F 100% 30.04 in 3.0 mi North 6.9 mph - N/A Rain Rain
7:15 PM 46.4 °F 41.9 °F 46.4 °F 100% 30.05 in 3.0 mi North 9.2 mph - 0.01 in Rain Rain
7:35 PM 44.6 °F 37.8 °F 44.6 °F 100% 30.06 in 5.0 mi North 15.0 mph - 0.02 in   Drizzle
7:53 PM 45.0 °F 39.7 °F 41.0 °F 86% 30.07 in - North 10.4 mph - 0.05 in   Unknown
7:55 PM 44.6 °F 39.2 °F 42.8 °F 93% 30.08 in 5.0 mi NNW 10.4 mph - 0.03 in Rain Light Rain
8:15 PM 42.8 °F 37.5 °F 42.8 °F 100% 30.08 in 4.0 mi North 9.2 mph - 0.02 in Rain Rain
8:35 PM 42.8 °F 37.0 °F 42.8 °F 100% 30.07 in 7.0 mi ENE 10.4 mph - 0.03 in Rain Rain
8:53 PM 44.1 °F 40.8 °F 42.1 °F 93% 30.08 in - North 5.8 mph - 0.08 in   Unknown
8:55 PM 42.8 °F 38.6 °F 42.8 °F 100% 30.09 in 4.0 mi North 6.9 mph - 0.04 in Rain Rain
9:15 PM 42.8 °F 38.6 °F 42.8 °F 100% 30.10 in 5.0 mi North 6.9 mph - 0.01 in Rain Rain
9:35 PM 42.8 °F 38.6 °F 42.8 °F 100% 30.10 in 2.5 mi North 6.9 mph - 0.02 in Rain Rain
9:53 PM 44.1 °F 40.1 °F 41.0 °F 89% 30.09 in - North 6.9 mph - 0.13 in   Unknown
9:55 PM 42.8 °F 39.3 °F 42.8 °F 100% 30.10 in 5.0 mi North 5.8 mph - 0.04 in Rain Rain
10:15 PM 42.8 °F 39.3 °F 42.8 °F 100% 30.09 in 5.0 mi North 5.8 mph - 0.01 in Rain Rain
10:35 PM 42.8 °F 38.0 °F 42.8 °F 100% 30.08 in 10.0 mi North 8.1 mph - 0.02 in   Drizzle
10:53 PM 43.0 °F 37.7 °F 39.9 °F 89% 30.09 in - NNW 9.2 mph - 0.05 in   Unknown
10:55 PM 42.8 °F 38.0 °F 41.0 °F 93% 30.09 in 10.0 mi North 8.1 mph - 0.03 in   Light Drizzle
11:15 PM 41.0 °F 35.2 °F 41.0 °F 100% 30.11 in 7.0 mi NNW 9.2 mph - 0.01 in Rain Light Rain
11:35 PM 41.0 °F 36.4 °F 41.0 °F 100% 30.11 in 3.0 mi North 6.9 mph - 0.01 in Rain Heavy Rain
11:53 PM 41.0 °F 34.7 °F 37.9 °F 89% 30.10 in - North 10.4 mph - 0.08 in   Unknown
11:55 PM 41.0 °F 34.7 °F 39.2 °F 93% 30.11 in 10.0 mi North 10.4 mph - 0.02 in Rain Light Rain